Regional Weather Roundup
Issued by NWS Goodland, KS

Home | Current Version | Previous Version | Text Only | Print | Product List | Glossary On
Versions: 1 2 3 4 5 6 7 8 9 10 11 12 13 14 15 16 17 18 19 20 21 22 23 24 25 26 27 28 29 30 31 32 33 34 35 36 37 38 39 40 41 42 43 44 45 46 47 48 49 50
000
ASUS43 KGLD 300108
RWRGLD

GOODLAND FORECAST AREA HOURLY WEATHER ROUNDUP
NATIONAL WEATHER SERVICE GOODLAND KS
700 PM MDT FRI APR 29 2016

...OFFICIAL OBSERVATIONS...

CITY           SKY/WX    TMP DP  RH WIND       PRES   REMARKS
GOODLAND KS    LGT SNOW  32  32 100 N10       29.86F VSB 3/4
HILL CITY KS   RAIN      44  42  93 NW6       29.86R FOG
IMPERIAL NEB   LGT SNOW  33  32  96 N10       29.92R FOG
MCCOOK NEB     HVY RAIN  41  39  93 N6        29.89R FOG
AKRON CO       SNOW      31  30  96 N13       29.87F VSB 1/2
BURLINGTON CO  LGT SNOW  33  30  88 N13       29.85S FOG
LIMON CO       LGT SNOW  30  30 100 NW13      29.87S VSB 3/4 WCI  20
$$

...UNOFFICIAL OBSERVATIONS...

CITY           SKY/WX    TMP DP  RH WIND       PRES   REMARKS
COLBY KS       LGT SNOW  34  34 100 N8        29.88F
GOVE KS          N/A     40  32  73 MISG        N/A
LENORA KS        N/A     42  32  68 MISG        N/A
NORTON KS      HVY RAIN  41  36  81 NE13G30   29.82R
SHARON SPRINGS   N/A     34  32  93 N6G13       N/A
TRIBUNE KS     CLOUDY    36  34  93 N13       29.86R
KIT CARSON CO    N/A     32  30  92 MISG        N/A
YUMA CO          N/A     32  31  96 CALM        N/A
$$




USA.gov is the U.S. government's official web portal to all federal, state and local government web resources and services.